Terminal Aerodrome Forecast
Issued by NWS

Home | Current Version | Previous Version | Text Only | Print | Product List | Glossary On
Versions: 1 2 3 4 5 6 7 8 9 10 11 12 13 14
000
FTUS41 KCAR 272300
TAFHUL
TAF
KHUL 272334Z 2800/2824 32006KT P6SM SCT050
     FM280500 32006KT P6SM VCSH OVC040
     FM281500 34012G20KT P6SM VCSH BKN040=

USA.gov is the U.S. government's official web portal to all federal, state and local government web resources and services.